Flag for U.S.A. Weather past 2 weeks in Moreno Valley, California, U.S.A.

Now
87 °F

Sunny.


Feels Like: 85 °F
Forecast: 59 / 91 °F
Wind: 12 mph from Northwest

Location: Riverside / March Air Force Base

Current Time: May 29, 2015 at 5:24:33 PM

Latest Report: May 29, 2015 at 4:58 PM


Visibility: 10 mi

Pressure: 29.85 "Hg

Humidity: 26%

Dew point: 48 °F

Location of Moreno ValleyLocation

Historic Weather in Moreno Valley — Graph

°F

Moreno Valley temperature yesterday

Maximum temperature yesterday: 85 °F (at 3:58 PM)
Minimum temperature yesterday: 52 °F (at 2:58 AM)
Average temperature yesterday: 66 °F

Past Weeks' High & Low Weather Summary

 TemperatureHumidityPressure
High89 °F (May 29, 2:58 PM)100% (May 15, 1:03 AM)30.08 "Hg (May 15, 1:03 AM)
Low48 °F (May 15, 12:58 AM)25% (May 29, 2:58 PM)29.81 "Hg (May 15, 3:58 PM)
Average60 °F73%29.96 "Hg
* Reported May 14 3:58 PM — May 29 3:58 PM, Moreno Valley, Weather by CustomWeather, © 2015

Note: Actual official high and low records may vary slightly from our data, if they occured in-between our weather recording intervals... More about our weather records

Advertising

Moreno Valley weather history for previous 24 hours

 ConditionsComfort  
Time TempWeatherWind HumidityBarometerVisibility
3:58 PM
Fri, May 29
89 °FSunny.13 mph26%29.85 "Hg10 mi
2:58 PM89 °FSunny.14 mph25%29.87 "Hg10 mi
1:58 PM88 °FPassing clouds.14 mph29%29.88 "Hg10 mi
12:58 PM85 °FScattered clouds.9 mph31%29.90 "Hg10 mi
11:58 AM83 °FSunny.8 mph34%29.90 "Hg10 mi
10:58 AM80 °FSunny.7 mph44%29.92 "Hg10 mi
9:58 AM74 °FSunny.5 mph54%29.92 "Hg10 mi
8:58 AM67 °FSunny.2 mph68%29.94 "Hg10 mi
7:58 AM62 °FSunny.1 mph80%29.93 "Hg9 mi
6:58 AM58 °FFog.2 mph94%29.92 "Hg6 mi
5:58 AM52 °FFog.No wind100%29.92 "Hg3 mi
4:58 AM53 °FFog.3 mph100%29.91 "Hg6 mi
3:58 AM56 °FClear.3 mph98%29.91 "Hg9 mi
2:58 AM56 °FClear.3 mph92%29.91 "Hg10 mi
1:58 AM57 °FClear.3 mph89%29.92 "Hg10 mi
12:58 AM59 °FClear.3 mph82%29.92 "Hg10 mi
11:58 PM
Thu, May 28
60 °FClear.3 mph78%29.93 "Hg10 mi
10:58 PM63 °FClear.3 mph70%29.93 "Hg10 mi
9:58 PM65 °FClear.5 mph66%29.93 "Hg10 mi
8:58 PM69 °FClear.6 mph59%29.91 "Hg10 mi
7:58 PM74 °FSunny.7 mph49%29.90 "Hg10 mi
6:58 PM79 °FSunny.10 mph39%29.88 "Hg10 mi
5:58 PM83 °FSunny.10 mph35%29.87 "Hg10 mi
Weather by CustomWeather, © 2015

See weather overviewHow to use our weather pages